This demonstration page uses our WeatherBlox Daily Observations layout. Learn more.

36.17497, -115.13722

Hourly Observations for June 17, 2016

Temp ( °F °C ) Dew Point ( °F °C ) Humidity (%) Winds ( mph kmh ) Pressure ( in mb ) Visibility ( mi km ) Precip ( " mm )
12:53 am 00:53 Clear 77 25 33 0.6 20 20 ESE 6 9 29.87 1012 10 16.0934 0 0
1:53 am 01:53 Clear 77 25 33 0.6 20 20 Calm 29.88 1012 10 16.0934 0 0
2:53 am 02:53 Clear 77 25 33 0.6 20 20 SE 6 9 29.88 1012 10 16.0934 0 0
3:53 am 03:53 Clear 75 23.9 34 1.1 22 22 E 5 7 29.89 1012 10 16.0934 0 0
4:53 am 04:53 Clear 74 23.3 35 1.7 24 24 SSE 8 13 29.91 1013 10 16.0934 0 0
5:53 am 05:53 Sunny 74 23.3 36 2.2 25 25 Calm 29.93 1013 10 16.0934 0 0
6:53 am 06:53 Sunny 76 24.4 37 2.8 24 24 SSE 9 15 29.95 1014 10 16.0934 0 0
7:53 am 07:53 Sunny 80 26.7 37 2.8 21 21 Calm 29.96 1015 10 16.0934 0 0
8:53 am 08:53 Sunny 82 27.8 37 2.8 20 20 SSE 9 15 29.97 1015 10 16.0934 0 0
9:53 am 09:53 Sunny 87 30.6 36 2.2 16 16 S 15 24 29.97 1015 10 16.0934 0 0
10:53 am 10:53 Sunny 90 32.2 36 2.2 15 15 SSE 20 31 29.96 1015 10 16.0934 0 0
11:53 am 11:53 Sunny 92 33.3 35 1.7 13 13 S 14 22 29.96 1015 10 16.0934 0 0
12:53 pm 12:53 Sunny 94 34.4 34 1.1 12 12 S 21 33 29.96 1015 10 16.0934 0 0
1:53 pm 13:53 Sunny 95 35 35 1.7 12 12 WSW 17 28 29.94 1014 10 16.0934 0 0
2:53 pm 14:53 Sunny 97 36.1 34 1.1 11 11 SW 16 26 29.92 1013 10 16.0934 0 0
3:53 pm 15:53 Sunny 96 35.6 32 0 10 10 WSW 9 15 29.91 1013 10 16.0934 0 0
4:53 pm 16:53 Sunny 97 36.1 31 -0.6 10 10 WSW 17 28 29.88 1012 10 16.0934 0 0
5:53 pm 17:53 Sunny 96 35.6 28 -2.2 9 9 W 15 24 29.88 1012 10 16.0934 0 0
6:53 pm 18:53 Sunny 95 35 27 -2.8 9 9 SW 12 19 29.89 1012 10 16.0934 0 0
7:53 pm 19:53 Sunny 93 33.9 28 -2.2 10 10 W 13 20 29.9 1012 10 16.0934 0 0
8:53 pm 20:53 Clear 91 32.8 32 0 12 12 WSW 8 13 29.91 1013 10 16.0934 0 0
9:53 pm 21:53 Clear 90 32.2 32 0 13 13 W 7 11 29.92 1013 10 16.0934 0 0
10:53 pm 22:53 Clear 88 31.1 33 0.6 14 14 Calm 29.93 1014 10 16.0934 0 0
11:53 pm 23:53 Clear 86 30 33 0.6 15 15 SSW 7 11 29.93 1014 10 16.0934 0 0

Powered by AerisWeather